CAPE
278 221 154 74 47 127 29 8 4 37 404 833 1029 1065 976 934 351 80 1 0 0 0 2 2 0 0 0 0 0 0 0 0 0 0 0 0 0 0 2 4 4 5 7
425 227 202 101 97 147 135 147 99 27 15 94 486 887 982 946 921 369 94 26 46 2 0 5 3 1 0 0 0 0 0 0 0 0 0 0 0 0 0 2 2 6 5
561 403 287 172 200 570 602 525 520 247 103 36 25 75 162 306 537 737 514 183 188 56 0 2 2 3 3 0 0 0 0 0 0 0 0 0 0 0 0 1 1 3 6
678 572 331 202 255 517 620 721 721 486 336 209 60 144 310 392 578 668 448 268 203 294 81 8 18 6 4 6 3 0 0 0 0 0 0 0 0 0 0 1 2 4 6
724 633 439 313 369 493 686 664 687 572 551 456 287 353 416 451 764 646 518 328 234 192 283 90 28 20 9 8 15 6 0 0 0 0 0 0 0 0 0 1 1 4 3
524 479 517 549 622 764 974 949 856 697 662 641 432 695 853 956 887 629 433 323 266 192 217 203 138 73 5 8 28 17 5 0 0 0 0 0 0 0 0 0 2 4 3
529 524 560 623 416 555 927 818 751 891 774 793 723 620 567 588 480 276 421 474 366 323 279 283 248 138 80 23 16 14 20 1 0 0 0 0 0 0 0 0 1 3 5
644 496 362 268 267 457 872 909 867 544 608 687 634 323 0 0 0 48 122 212 263 392 366 359 333 267 183 157 68 5 15 13 0 0 0 0 0 0 0 0 1 3 5
793 627 497 455 312 189 275 819 1048 419 527 308 215 0 0 0 0 0 228 341 402 312 456 479 436 312 269 194 67 29 9 1 3 0 0 0 0 0 0 0 1 1 5
981 823 716 472 167 193 795 987 1239 764 216 19 158 101 70 127 0 0 144 230 411 417 536 500 460 380 217 199 108 4 3 2 5 3 0 0 0 0 0 1 2 1 5
1063 898 610 350 173 338 1204 1206 902 415 593 539 364 391 467 329 280 175 0 64 293 447 485 609 302 287 216 168 82 15 4 3 4 3 0 0 0 0 0 0 3 3 5
967 848 715 561 339 421 1205 1236 965 963 906 760 712 561 251 125 236 347 148 153 116 152 369 676 391 123 111 118 69 2 3 2 1 0 0 0 0 0 0 1 2 5 5
728 552 737 563 695 836 1450 1406 1252 1276 1179 995 747 622 801 464 623 481 250 0 14 131 201 684 430 171 68 19 12 3 3 1 3 0 0 0 0 0 0 1 1 3 2
684 790 650 571 770 1289 1666 1522 1291 1275 1302 1252 1014 965 666 635 758 516 120 76 7 99 157 448 360 87 29 12 2 3 2 6 1 0 0 0 0 0 0 0 1 0 0
1009 1135 754 531 573 1174 1485 1529 1320 1226 1264 1212 1071 1024 621 706 906 861 820 560 60 0 0 485 423 19 2 2 3 1 3 5 1 0 0 0 0 0 0 0 0 0 0
934 1125 1048 809 609 850 1328 1599 1491 1572 1437 1212 971 686 731 559 901 876 760 694 646 326 15 265 46 0 2 2 3 1 3 3 0 0 0 0 0 0 0 0 0 0 0
1223 1235 1258 1204 880 853 1295 1349 1555 1594 1512 1311 762 545 623 618 507 510 650 721 758 685 282 504 3 1 2 0 3 3 3 1 1 2 1 0 0 0 0 0 0 0 0
1111 1120 1301 1350 1377 1121 1383 1418 1487 1572 1533 1308 748 300 97 28 365 533 322 498 725 781 693 616 0 1 0 3 3 2 3 3 1 3 1 0 0 0 0 0 0 0 0
979 799 632 731 812 1245 1556 1543 1783 1628 1561 1289 803 120 0 0 4 3 65 241 380 631 481 428 61 2 2 4 3 4 3 3 3 3 0 0 0 0 0 0 0 0 0
335 386 342 427 436 664 1083 1537 1785 1626 1359 959 578 97 0 0 0 0 0 24 0 0 0 0 0 0 1 5 3 2 3 4 5 3 0 0 0 0 0 0 0 0 0
0 2 61 72 73 84 486 823 937 828 639 697 319 9 0 0 0 0 0 0 0 0 0 0 0 0 0 0 0 3 3 5 3 3 0 0 0 0 0 0 0 0 0
0 0 0 0 4 0 10 15 309 32 12 29 68 0 0 0 0 0 0 0 0 0 0 0 0 0 0 0 1 2 4 5 1 3 0 0 0 0 0 0 0 0 0
0 0 0 0 0 0 4 0 0 224 99 54 1 0 0 0 0 0 0 0 0 0 0 0 0 0 0 0 0 2 4 3 4 4 0 0 0 0 0 0 0 0 0
0 2 2 0 0 0 0 0 0 14 49 4 0 0 0 0 0 0 0 0 0 0 0 0 0 0 0 0 0 0 1 4 1 2 0 0 0 0 0 0 0 0 0
0 0 0 0 0 0 0 0 0 0 0 0 0 0 0 0 0 0 0 0 0 0 0 0 0 0 0 0 1 1 2 3 2 4 3 0 0 0 0 0 0 0 0
2 0 0 0 0 5 0 0 0 3 0 0 0 0 0 0 0 0 0 17 6 0 0 0 0 0 0 0 0 1 1 0 1 0 3 0 0 0 0 0 0 0 0
CIN
-173 -156 -142 -143 -149 -120 -127 -51 -52 -119 -51 -7 0 0 -1 -5 -40 -121 -33 0 0 0 0 0 0 0 0 0 0 0 0 0 0 0 0 0 0 0 0 -1 0 0 0
-163 -156 -138 -135 -132 -110 -88 -80 -82 -108 -138 -123 -20 -6 -4 -6 -7 -65 -120 -106 -111 -43 0 0 0 0 0 0 0 0 0 0 0 0 0 0 0 0 0 0 0 0 -1
-158 -138 -125 -121 -100 -59 -56 -59 -64 -87 -101 -136 -159 -141 -106 -65 -45 -36 -47 -111 -52 -92 0 0 0 0 0 0 0 0 0 0 0 0 0 0 0 0 0 0 -1 0 0
-148 -127 -125 -121 -94 -73 -51 -46 -56 -66 -69 -80 -102 -88 -71 -66 -56 -60 -72 -75 -111 -34 -78 -116 -64 0 0 0 0 0 0 0 0 0 0 0 0 0 -1 0 0 -1 0
-134 -117 -117 -103 -90 -66 -54 -57 -57 -67 -60 -66 -77 -74 -68 -66 -60 -75 -76 -83 -84 -65 -32 -67 -78 -66 -62 -2 0 0 0 0 0 0 0 0 0 0 0 0 0 0 -1
-157 -135 -109 -85 -59 -36 -31 -40 -47 -67 -56 -55 -45 -42 -52 -47 -56 -73 -85 -82 -67 -69 -49 -33 -26 -36 -26 -10 -7 0 0 0 0 0 0 0 0 0 0 0 0 0 -1
-166 -131 -93 -79 -70 -49 -25 -21 -22 -37 -44 -55 -33 -40 -51 -69 -78 -119 -88 -54 -50 -41 -38 -25 -9 -10 -5 -16 -27 -1 0 0 0 0 0 0 0 0 0 0 0 0 0
-166 -127 -123 -120 -99 -46 -25 -24 -33 -29 -34 -57 -19 -38 0 0 0 -139 -131 -102 -77 -33 -24 -16 -13 -10 -5 0 -13 -9 -2 0 0 0 0 0 0 0 0 0 0 -1 0
-154 -121 -120 -82 -93 -116 -58 -33 -19 -17 -14 -87 -101 0 0 0 0 0 -54 -48 -54 -60 -22 -17 -16 -18 -11 -10 -19 -37 0 0 0 0 0 0 0 0 0 0 0 0 -1
-116 -122 -102 -95 -169 -118 -22 -22 -13 -27 -48 -91 -96 -109 -107 -56 0 0 -68 -49 -30 -30 -20 -12 -14 -20 -30 -14 -27 -55 -1 0 0 0 0 0 0 0 0 0 0 0 -1
-113 -119 -111 -120 -180 -89 -21 -24 -38 -57 -34 -32 -43 -64 -61 -67 -73 -49 0 -48 -23 -19 -21 -15 -49 -38 -35 -31 -48 -35 0 0 0 0 0 0 0 0 0 0 0 0 -1
-124 -132 -121 -115 -124 -103 -34 -27 -38 -35 -30 -36 -38 -48 -48 -49 -57 -42 -57 -46 -39 -24 -21 -9 -33 -107 -97 -72 -87 0 0 0 0 0 0 0 0 0 0 0 0 0 -1
-124 -139 -145 -136 -114 -92 -37 -30 -39 -30 -36 -37 -49 -44 -32 -38 -34 -33 -56 0 -45 -35 -20 -6 -20 -71 -133 -174 -125 0 0 0 0 0 0 0 0 0 0 0 0 0 0
-110 -124 -141 -129 -113 -79 -47 -48 -46 -36 -43 -38 -46 -42 -37 -38 -31 -29 -74 -97 -10 -42 -12 -4 -16 -101 -169 -190 0 0 0 0 0 0 0 0 0 0 0 0 0 0 0
-105 -119 -131 -111 -121 -99 -70 -60 -41 -50 -47 -43 -44 -42 -46 -37 -23 -16 -9 -11 -99 0 0 -1 0 -149 0 0 0 0 0 0 0 0 0 0 0 0 0 0 0 0 0
-102 -111 -115 -115 -105 -106 -92 -71 -51 -45 -46 -49 -53 -67 -59 -54 -33 -28 -26 -13 -2 -5 -46 -2 -69 0 0 0 0 0 0 0 0 0 0 0 0 0 0 0 0 0 0
-114 -109 -109 -92 -95 -99 -96 -94 -72 -58 -48 -52 -78 -78 -71 -72 -57 -57 -42 -19 -1 -1 -4 0 0 0 0 0 0 0 0 0 0 0 0 0 0 0 0 0 0 0 0
-157 -134 -118 -125 -103 -94 -97 -95 -72 -65 -50 -57 -78 -98 -100 -135 -82 -63 -66 -45 -8 -1 0 0 0 0 0 0 0 0 0 0 0 0 0 0 0 0 0 0 0 0 0
-189 -200 -208 -176 -183 -95 -91 -105 -64 -66 -60 -64 -79 -109 0 0 -130 -36 -121 -67 -36 -7 -9 -1 -37 0 0 0 0 0 0 0 0 0 0 0 0 0 0 0 0 0 0
-205 -264 -269 -221 -130 -147 -79 -33 -31 -53 -75 -87 -95 -124 0 0 0 0 0 -81 0 0 0 0 0 -1 0 0 0 0 0 0 0 0 0 0 0 0 0 0 0 0 0
0 -85 -310 -264 -255 -104 -92 -4 -13 -58 -91 -69 -117 -145 0 0 0 0 0 0 0 0 0 0 0 0 0 0 0 0 0 0 0 0 0 0 0 0 0 0 0 0 0
0 0 0 0 0 -4 -219 -79 -69 -100 -154 -12 -134 0 0 0 0 0 0 0 0 0 0 0 0 0 0 0 0 0 0 0 0 0 0 0 0 0 0 0 0 0 0
0 0 0 0 0 0 0 0 0 -93 -98 -113 -45 0 0 0 0 0 0 0 0 0 0 0 0 0 0 0 0 0 0 0 0 0 0 0 0 0 0 0 0 0 0
-23 -44 0 0 0 0 0 0 0 -63 -96 -185 -5 0 0 0 0 0 0 0 0 0 0 0 0 0 0 0 0 0 0 0 0 0 0 0 0 0 0 0 0 0 0
0 0 0 0 0 0 0 0 0 0 0 0 0 0 0 0 0 0 -16 0 0 0 0 0 0 0 0 0 0 0 0 0 0 0 0 0 0 0 0 0 0 0 0
-1 0 0 0 0 -73 0 0 0 0 0 -5 -8 0 0 0 0 0 0 -39 -29 0 0 0 0 0 0 0 0 0 0 0 0 0 0 0 0 0 0 0 0 0 0
Wind_Speed
8 10 8 7 6 5 6 7 9 9 9 10 12 12 11 12 13 12 11 9 9 9 9 10 11 12 14 15 17 20 22 24 26 27 28 29 29 29 29 29 29 29 29
7 8 7 5 4 4 6 8 9 10 8 8 9 9 9 11 12 10 11 12 7 7 8 8 9 10 11 12 14 17 20 23 25 27 28 29 30 29 29 30 30 30 29
6 7 8 6 4 5 6 8 9 9 10 6 7 8 8 9 10 11 11 12 10 5 6 6 6 8 9 10 11 14 18 21 24 26 28 29 30 30 29 30 30 30 30
8 8 8 6 5 7 7 7 6 7 7 6 7 7 7 9 13 14 13 13 11 9 6 4 6 6 7 8 10 12 15 19 22 25 27 29 29 30 29 30 30 30 30
10 9 10 9 6 9 9 7 7 5 6 5 7 7 9 14 14 14 14 11 10 10 8 7 5 5 7 6 7 7 11 15 19 22 26 28 29 30 30 30 30 30 30
11 12 12 10 8 10 12 8 4 5 7 8 8 9 11 13 15 14 14 12 11 10 10 12 11 8 6 7 6 5 7 11 16 19 23 27 28 30 30 30 30 30 30
13 12 12 11 10 11 9 6 5 6 9 8 9 11 12 14 14 14 14 12 12 10 11 12 12 15 13 7 6 6 7 8 13 17 20 25 28 29 29 29 30 30 30
14 14 13 11 10 10 6 5 6 10 10 7 10 13 15 14 15 15 14 14 13 13 11 9 8 11 13 12 9 6 7 6 10 14 20 24 28 28 28 29 29 30 30
14 14 12 13 13 10 8 6 7 6 8 10 10 14 14 14 15 15 15 15 15 14 13 11 8 8 10 10 9 9 6 5 8 15 20 23 26 27 28 29 29 30 30
13 12 13 13 11 8 10 6 5 7 8 8 10 12 14 13 14 15 13 14 15 15 15 14 13 10 9 9 10 9 5 6 7 12 17 22 25 27 28 28 29 30 30
14 12 11 10 8 8 8 6 4 4 5 7 9 10 12 13 13 14 16 16 16 15 15 16 16 14 12 12 12 10 7 7 9 12 16 18 23 26 27 28 29 29 29
14 13 11 9 8 7 7 5 3 4 6 9 10 10 12 13 13 13 14 16 16 16 17 17 18 15 13 12 12 12 9 9 8 11 15 18 22 26 27 27 28 29 29
14 12 9 7 6 5 5 4 5 6 7 8 9 11 12 13 13 13 14 16 16 17 16 17 19 17 14 13 13 12 11 12 11 12 16 18 22 25 26 26 27 29 29
13 12 9 8 7 6 6 6 7 7 7 8 8 11 12 13 13 13 15 16 16 15 15 17 18 19 16 16 13 11 11 11 12 14 16 20 21 23 24 26 27 28 28
13 14 12 10 9 9 9 8 8 8 8 9 10 11 13 13 13 13 14 15 16 17 15 15 17 19 17 16 15 13 11 11 13 16 17 19 22 23 23 25 26 26 28
15 14 14 14 13 12 12 12 12 11 11 11 12 12 13 14 14 14 15 15 14 14 14 14 17 18 18 17 15 14 12 13 14 15 18 20 23 23 23 24 25 25 26
25 20 20 19 19 18 17 17 17 16 14 14 13 12 13 13 13 13 14 14 13 13 14 15 15 18 18 16 15 14 13 13 14 15 17 21 23 22 23 23 24 24 25
28 27 29 28 30 27 25 23 22 20 19 17 15 12 12 13 12 12 13 14 14 13 15 16 15 15 17 16 14 13 13 13 14 15 16 19 22 22 23 24 23 22 25
31 30 29 28 28 33 34 31 28 26 25 21 18 15 14 12 13 12 12 13 14 14 14 15 15 14 15 14 14 14 13 13 14 14 16 17 20 23 23 25 25 23 24
31 31 33 36 34 34 38 34 33 33 30 26 21 18 16 15 15 14 12 11 12 14 15 15 15 15 15 14 13 12 12 12 12 13 14 16 18 21 22 23 26 26 26
29 31 34 38 37 45 43 38 37 36 34 29 23 18 16 12 9 10 10 10 11 14 15 16 16 16 14 13 10 11 11 12 12 12 12 13 15 19 22 22 24 26 26
32 29 30 33 36 39 43 42 38 41 40 46 19 18 18 14 13 11 10 10 11 13 15 17 17 18 16 13 11 9 10 12 14 8 9 11 13 16 19 20 22 25 25
41 39 35 33 36 37 38 36 36 32 27 26 19 18 14 16 16 14 14 15 15 14 16 16 18 18 19 13 10 8 6 11 13 11 8 10 10 13 16 20 20 23 25
41 42 42 42 39 37 41 38 33 31 29 24 21 20 17 15 16 15 15 17 16 15 16 16 18 19 19 16 8 9 8 11 15 10 7 10 8 12 13 16 18 20 23
41 40 39 40 41 40 32 33 36 30 31 28 22 23 20 17 19 16 16 18 13 14 14 17 19 19 20 16 10 9 8 9 14 12 4 10 8 10 10 14 13 17 20
41 40 40 40 39 39 39 34 30 31 31 27 28 28 28 24 25 19 20 20 20 17 15 12 20 20 18 15 5 6 7 6 14 14 7 6 8 9 11 11 11 12 15
Wind_Direction
356 357 2 7 29 48 48 20 5 3 358 349 337 343 347 347 351 1 5 7 8 7 8 13 16 25 25 25 26 24 15 9 9 8 7 7 4 3 3 360 0 7 6
353 3 6 11 38 51 34 16 14 1 1 2 349 350 351 351 350 357 359 356 356 4 360 1 5 12 17 22 22 21 17 9 7 5 5 6 5 1 357 0 2 5 8
336 350 348 352 6 7 5 2 2 3 356 14 13 2 358 354 351 354 1 3 0 359 351 350 350 358 4 10 15 16 10 5 3 3 3 4 4 4 4 359 1 4 7
322 334 337 339 351 350 353 351 356 357 7 18 11 16 10 354 342 345 350 352 350 352 350 2 354 351 351 358 359 4 6 359 359 360 2 1 5 7 9 1 1 5 7
316 322 324 325 328 335 341 340 340 354 360 7 359 1 355 348 349 352 353 2 359 354 1 353 345 340 341 348 352 359 359 3 1 359 358 359 2 4 1 1 2 6 8
310 314 316 318 317 324 330 332 336 341 348 351 357 2 358 353 352 352 356 2 360 353 342 336 341 331 316 320 326 345 358 3 2 4 358 359 6 2 2 2 3 5 9
305 309 310 312 312 316 328 340 356 348 341 351 355 349 350 351 354 356 359 5 6 4 356 342 340 333 333 319 321 335 342 352 0 6 3 358 358 0 4 4 3 6 9
301 303 307 310 311 316 319 322 333 332 336 346 343 341 344 356 3 7 16 18 19 15 14 15 5 349 340 339 337 325 338 5 5 10 356 356 357 360 3 360 4 5 11
300 299 304 306 306 307 310 306 316 328 336 337 336 338 346 350 3 14 21 25 26 27 28 27 24 10 356 352 348 347 6 32 29 358 344 0 360 3 359 0 3 5 12
299 299 304 304 302 302 308 313 314 323 335 340 342 347 352 1 3 4 16 20 23 23 26 30 26 28 27 22 11 11 28 19 59 32 357 358 358 3 3 1 1 5 12
298 301 304 306 297 298 301 312 323 335 342 345 346 354 357 1 8 8 359 8 14 21 27 25 26 33 39 31 24 29 34 22 6 17 7 20 9 8 7 6 0 7 12
297 298 301 301 289 290 286 297 312 329 333 330 336 346 351 353 5 14 13 9 9 12 16 25 23 34 41 36 40 37 49 55 46 36 40 23 15 9 9 9 2 9 12
290 291 289 294 282 273 271 276 291 308 319 326 334 339 348 355 5 12 11 12 16 14 15 19 21 32 40 36 33 46 64 73 61 31 14 22 14 11 12 6 12 12 16
279 283 274 278 272 263 265 271 287 297 309 317 324 326 334 344 355 3 2 6 10 20 21 12 19 22 34 25 31 46 56 53 29 24 14 3 21 24 23 4 10 14 18
276 276 267 261 262 260 258 265 274 280 294 303 310 317 322 333 345 352 358 5 7 6 18 20 10 13 21 25 25 32 37 39 20 5 1 9 0 13 23 10 9 17 17
265 270 261 260 254 252 253 258 267 271 278 288 296 303 312 321 330 341 350 357 9 11 13 22 10 6 9 16 28 27 28 27 22 7 359 350 349 360 14 20 6 12 21
272 267 267 260 256 253 252 253 258 264 268 276 283 291 301 313 322 332 341 351 0 10 7 11 14 5 6 18 23 27 24 21 15 11 360 352 1 350 4 14 19 16 18
272 271 270 270 266 259 256 253 252 256 258 263 268 277 288 300 310 323 333 341 349 357 357 1 10 16 3 6 17 24 20 21 15 11 11 5 3 5 6 7 20 22 17
272 273 271 267 266 264 261 256 252 251 253 256 259 266 274 284 295 309 321 330 340 348 353 357 360 14 4 4 4 9 11 13 14 19 13 11 3 2 3 4 13 21 17
279 276 274 272 265 269 264 262 258 251 247 250 251 260 267 273 283 294 308 321 332 338 345 351 357 1 5 359 359 3 3 6 9 17 14 19 15 6 12 7 5 12 10
287 284 279 278 272 265 267 265 259 261 253 246 244 251 262 265 269 282 294 306 319 325 333 341 347 354 1 356 358 357 357 359 1 10 15 19 15 10 360 5 3 9 10
285 286 283 282 277 271 269 267 266 261 270 255 234 249 259 258 266 269 281 291 304 312 319 326 334 340 349 354 353 353 352 350 347 16 10 9 16 8 360 5 6 6 18
276 276 280 281 280 278 274 267 265 264 256 254 240 244 246 255 262 269 274 286 292 301 311 317 323 331 335 350 349 350 350 340 345 5 18 6 19 4 1 1 359 7 20
278 276 275 273 275 279 277 269 265 260 255 249 242 241 239 249 255 264 273 281 287 290 297 306 313 322 330 344 350 340 347 337 337 358 21 5 24 3 353 1 8 7 15
278 277 276 272 270 270 274 274 266 257 255 251 247 249 248 251 258 257 271 275 285 291 298 297 303 314 320 337 346 343 340 341 329 340 38 11 30 18 11 347 37 14 19
279 277 275 273 271 269 264 270 274 261 251 246 251 251 253 257 259 259 267 273 280 290 295 304 295 302 312 330 348 338 329 335 327 331 349 12 33 30 6 10 31 22 44